[[{"header":{"parameterUnit":"m.s-1","parameterCategory":1,"la1":30.2991,"la2":30.254,"lo1":-89.0895,"lo2":-89.0444,"dy":0.0017,"dx":0.0017,"nx":28,"ny":28,"refTime":"2024-11-22T03:00:00:Z","depth":0,"parameterNumber":2,"parameterNumberName":"U-component_of_WINDS"},"data":[0,0,0,0,0,0,0,0,0,0,0,0,0,0,0,0,0,0,0,0,0,0,0,0,0,0,0,0,0,0,0,0,0,0,0,0,0,0,0,0,0,0,0,0,0,0,0,0,0,0,0,0,0,0,0,0,0,0,5.1806,5.1809,0,5.2023,5.2025,5.2028,5.1964,5.1959,5.1955,5.1951,5.2179,5.2189,5.2199,0,0,0,0,0,0,0,0,0,0,0,0,0,5.1345,5.1353,5.1806,5.1809,5.1812,5.2022,5.2025,5.2028,5.1965,5.1959,5.1954,5.1949,5.2175,5.2188,5.22,0,0,0,0,0,0,0,0,0,0,0,0,0,5.1552,5.1356,5.1806,5.1805,5.1807,5.2022,5.2025,5.2029,5.1966,5.1959,5.1952,5.1946,5.2171,5.2186,5.2202,5.2432,0,0,5.2249,5.2255,0,0,0,0,0,0,0,0,5.154,5.1569,5.1802,5.1805,5.1808,5.1959,5.1946,5.2164,5.1967,5.1906,5.195,5.1943,5.2112,5.2132,5.2187,5.2443,5.2452,5.225,5.2259,5.2266,5.227,0,0,0,0,0,0,0,5.1526,5.1559,5.1892,5.1806,5.1809,5.1796,5.1818,5.1987,5.2044,5.1911,5.1906,5.1933,5.2112,5.2172,5.2192,5.2456,5.225,5.2263,5.2273,5.2279,5.2914,5.2921,0,0,0,0,0,0,5.1508,5.1547,5.1885,5.1898,5.1654,5.181,5.1835,5.1918,5.2042,5.2054,5.1938,5.1929,5.2149,5.2174,5.22,5.248,5.2266,5.228,5.2289,5.2906,5.2916,5.2924,0,0,0,0,0,0,5.1499,5.1539,5.1876,5.1722,5.1764,5.1825,5.1919,5.1926,5.1986,5.2063,5.2073,5.1989,5.2145,5.2178,5.2375,5.2486,5.2287,5.2301,5.2897,5.2909,5.292,5.304,0,0,0,0,0,0,5.1486,5.1536,5.1622,5.1724,5.1772,5.2046,5.1926,5.1935,5.2012,5.2002,5.2113,5.2126,5.2142,5.2352,5.239,5.2504,5.2313,5.2888,5.2903,5.2916,5.3026,5.3054,5.3077,0,0,0,0,0,5.1469,5.1648,5.1627,5.1668,5.1881,5.2052,5.208,5.2094,5.2021,5.211,5.216,5.2122,5.2468,5.2373,5.2415,5.2535,5.2881,5.2898,5.2915,5.3014,5.3048,5.3077,0,0,0,0,0,0,5.156,5.1662,5.1639,5.1856,5.1946,5.2041,5.2153,5.2129,5.2243,5.2229,5.2243,5.2269,5.2471,5.2523,5.2415,5.2766,5.2664,5.269,5.2725,5.2758,5.2783,5.2767,5.2326,0,0,0,0,0,5.1605,5.1733,5.1816,5.1999,5.2045,5.2092,5.2167,5.217,5.2264,5.2303,5.2367,5.2462,5.2592,5.2678,5.2801,5.3033,5.3058,5.3137,5.3162,5.3183,5.3206,5.3335,5.3371,5.298,5.298,5.298,0,0,5.17,5.1771,5.1851,5.2019,5.2089,5.2224,5.2124,5.2271,5.2372,5.2326,5.2515,5.2566,5.2673,5.2889,5.2987,5.2938,5.332,5.3205,5.3221,5.3233,5.3356,5.3393,5.3426,5.2992,5.299,5.2988,0,0,5.1941,5.2007,5.2168,5.224,5.2346,5.2376,5.2415,5.2515,5.2546,5.2736,5.2705,5.2826,5.305,5.3128,5.3197,5.347,5.3441,5.351,5.3645,5.377,5.3801,5.3829,5.3928,5.3963,5.3533,5.3533,5.3533,0,5.2046,5.2246,5.2254,5.2404,5.248,5.2442,5.2607,5.2677,5.282,5.2875,5.2817,5.3098,5.3167,5.3402,5.3468,5.3525,5.3572,5.3498,5.3795,5.3823,5.3849,5.3944,5.3981,5.3541,5.354,5.3539,5.3538,0,5.2371,5.251,5.2627,5.2764,5.2854,5.301,5.3045,5.3135,5.313,5.3167,5.3363,5.3445,5.3585,5.3641,5.3639,5.3876,5.3843,5.3791,5.3688,5.3894,5.3984,5.402,5.3552,5.3549,5.3547,5.3545,0,0,5.2676,5.2815,5.2858,5.2921,5.3036,5.3146,5.3302,5.3437,5.3515,5.3615,5.3748,5.3939,5.3891,5.397,5.3976,5.4086,5.43,5.4021,5.4023,5.4071,5.4569,5.4609,5.465,5.428,5.4287,5.4293,5.4561,0,5.2928,5.32,5.3213,5.3462,5.3592,5.3559,5.3695,5.3782,5.3821,5.3939,5.3983,5.4119,5.4045,5.4092,5.4199,5.4251,5.44,5.4231,5.4407,5.4413,5.4382,5.4697,5.4739,5.4988,5.4596,5.4601,5.4606,0,5.3259,5.3368,5.3629,5.3727,5.3783,5.3905,5.4031,5.4143,5.4243,5.4264,5.4352,5.4343,5.4506,5.4397,5.4623,5.4508,5.4581,5.4617,5.4627,5.4645,5.4523,5.4725,5.5067,5.5105,5.4661,5.4656,5.4652,0,5.3458,5.367,5.3854,5.3908,5.4027,5.4114,5.4168,5.426,5.4341,5.4453,5.4506,5.4636,5.4707,5.4809,5.4836,5.4754,5.5063,5.4956,5.5087,5.5087,5.5155,5.515,5.5515,5.5199,5.5198,5.5198,5.5197,0,5.3739,5.3901,5.3944,5.4058,5.4239,5.4253,5.4433,5.4481,5.4564,5.4688,5.4668,5.4785,5.4813,5.4937,5.496,5.5145,5.5177,5.5201,5.5205,5.5204,5.5201,5.5252,5.5236,5.5208,5.5205,5.5204,5.5202,0,5.3992,5.4027,5.4226,5.4322,5.435,5.4479,5.4563,5.4673,5.4709,5.4867,5.4905,5.4963,5.5108,5.5145,5.5318,5.5334,5.5553,5.554,5.5519,5.5519,5.5648,5.5636,5.606,5.6118,5.5763,5.5766,5.5769,0,5.417,5.4294,5.4402,5.4483,5.4541,5.4671,5.4754,5.4773,5.4861,5.4984,5.508,5.5222,5.5337,5.5571,5.563,5.5763,5.5755,5.5894,5.5775,5.577,5.5759,5.5752,5.5765,5.5917,5.5921,5.5924,5.5926,0,5.4483,5.4495,5.4613,5.474,5.4838,5.4939,5.5035,5.5103,5.5137,5.5237,5.5383,5.5472,5.5649,5.5792,5.5926,5.5984,5.5963,5.5963,5.6001,5.6001,5.5985,5.5997,5.5582,5.5954,5.5951,5.5949,5.5948,5.5947,5.4706,5.4814,5.4908,5.5042,5.5116,5.5207,5.5315,5.5365,5.5487,5.5631,5.5636,5.5796,5.5895,5.6073,5.6139,5.6266,5.6224,5.6279,5.6293,5.6306,5.6318,5.5963,5.6291,5.629,5.6289,5.6289,5.6288,0,5.5019,5.5078,5.52,5.5335,5.5441,5.5409,5.5514,5.5606,5.5746,5.5839,5.5952,5.6122,5.626,5.633,5.6468,5.6557,5.6551,5.6593,5.6587,5.6602,5.6347,5.6301,5.6596,5.6596,5.6596,5.6595,5.6595,5.6595,5.5195,5.5377,5.54,5.5621,5.5679,5.5834,5.5898,5.5982,5.6056,5.6246,5.636,5.6404,5.6489,5.6633,5.6759,5.6776,5.6829,5.6877,5.6889,5.6651,5.6619,5.6589,5.6547,5.6888,5.6888,5.7134,5.7136,5.7137]},{"header":{"parameterUnit":"m.s-1","parameterCategory":1,"la1":30.2991,"la2":30.254,"lo1":-89.0895,"lo2":-89.0444,"dy":0.0017,"dx":0.0017,"nx":28,"ny":28,"refTime":"2024-11-22T03:00:00:Z","depth":0,"parameterNumber":3,"parameterNumberName":"V-component_of_WINDS"},"data":[0,0,0,0,0,0,0,0,0,0,0,0,0,0,0,0,0,0,0,0,0,0,0,0,0,0,0,0,0,0,0,0,0,0,0,0,0,0,0,0,0,0,0,0,0,0,0,0,0,0,0,0,0,0,0,0,0,0,-3.1474,-3.1476,0,-3.166,-3.1662,-3.1664,-3.1655,-3.1652,-3.165,-3.1647,-3.1844,-3.1851,-3.1859,0,0,0,0,0,0,0,0,0,0,0,0,0,-3.1116,-3.1122,-3.1474,-3.1476,-3.1478,-3.166,-3.1662,-3.1665,-3.1656,-3.1652,-3.1649,-3.1646,-3.1841,-3.185,-3.1859,0,0,0,0,0,0,0,0,0,0,0,0,0,-3.1284,-3.1125,-3.1473,-3.1495,-3.1499,-3.1659,-3.1662,-3.1666,-3.1656,-3.1652,-3.1648,-3.1644,-3.1838,-3.1849,-3.1861,-3.2013,0,0,-3.1896,-3.1901,0,0,0,0,0,0,0,0,-3.1274,-3.1297,-3.149,-3.1494,-3.1499,-3.163,-3.1608,-3.1782,-3.1657,-3.1597,-3.1647,-3.1643,-3.1776,-3.1793,-3.1837,-3.2022,-3.203,-3.1897,-3.1904,-3.1909,-3.1912,0,0,0,0,0,0,0,-3.1263,-3.1289,-3.1548,-3.1493,-3.1498,-3.1498,-3.1517,-3.1641,-3.1707,-3.1602,-3.1602,-3.1623,-3.1778,-3.1825,-3.1841,-3.2033,-3.1897,-3.1907,-3.1914,-3.1919,-3.2355,-3.2359,0,0,0,0,0,0,-3.1245,-3.1279,-3.1542,-3.1553,-3.1374,-3.1508,-3.1529,-3.1592,-3.1706,-3.1719,-3.1627,-3.1622,-3.1808,-3.1828,-3.1848,-3.2035,-3.1909,-3.192,-3.1927,-3.235,-3.2356,-3.2361,0,0,0,0,0,0,-3.1238,-3.1269,-3.1534,-3.1416,-3.145,-3.1518,-3.1589,-3.1598,-3.1645,-3.1724,-3.1736,-3.1663,-3.1805,-3.1832,-3.1972,-3.2041,-3.1925,-3.1936,-3.2345,-3.2352,-3.2358,-3.2408,0,0,0,0,0,0,-3.1227,-3.1266,-3.1323,-3.1417,-3.1456,-3.1653,-3.1593,-3.1604,-3.1665,-3.1661,-3.1761,-3.1774,-3.1804,-3.1955,-3.1983,-3.2055,-3.1945,-3.2339,-3.2348,-3.2356,-3.2401,-3.2416,-3.2429,0,0,0,0,0,-3.1215,-3.133,-3.1326,-3.1358,-3.1528,-3.1657,-3.168,-3.171,-3.167,-3.1729,-3.178,-3.1771,-3.2029,-3.1969,-3.2001,-3.2078,-3.2334,-3.2345,-3.2355,-3.2394,-3.2413,-3.2429,0,0,0,0,0,0,-3.1244,-3.1343,-3.1339,-3.1489,-3.1564,-3.1655,-3.173,-3.1728,-3.1818,-3.1811,-3.1847,-3.187,-3.2011,-3.2058,-3.199,-3.2232,-3.2177,-3.2194,-3.2195,-3.2214,-3.2228,-3.2214,-3.1954,0,0,0,0,0,-3.1267,-3.1362,-3.1444,-3.1568,-3.1606,-3.1662,-3.1719,-3.1736,-3.1816,-3.1849,-3.191,-3.199,-3.209,-3.2154,-3.225,-3.2407,-3.243,-3.2476,-3.249,-3.2501,-3.2516,-3.2605,-3.2627,-3.2395,-3.2395,-3.2395,0,0,-3.1318,-3.1383,-3.1441,-3.1576,-3.1636,-3.1735,-3.1689,-3.1795,-3.187,-3.1866,-3.2001,-3.2049,-3.2142,-3.2291,-3.2361,-3.2335,-3.2586,-3.2515,-3.2523,-3.2532,-3.2618,-3.264,-3.266,-3.2402,-3.2401,-3.24,0,0,-3.146,-3.1518,-3.1628,-3.169,-3.1782,-3.1818,-3.1845,-3.1937,-3.1968,-3.2104,-3.2104,-3.2194,-3.2364,-3.243,-3.2486,-3.2654,-3.265,-3.2684,-3.2759,-3.2845,-3.2864,-3.288,-3.2942,-3.2964,-3.2699,-3.2699,-3.2699,0,-3.1511,-3.1658,-3.1686,-3.1793,-3.1853,-3.1853,-3.1966,-3.2025,-3.2145,-3.2187,-3.2157,-3.237,-3.2432,-3.2599,-3.264,-3.2684,-3.2718,-3.2673,-3.2858,-3.2875,-3.2891,-3.2951,-3.2973,-3.2703,-3.2702,-3.2702,-3.2701,0,-3.1718,-3.182,-3.1898,-3.2012,-3.2081,-3.2191,-3.2237,-3.2304,-3.2315,-3.2356,-3.2496,-3.257,-3.2682,-3.2722,-3.2735,-3.2891,-3.2873,-3.285,-3.2796,-3.2916,-3.2973,-3.2996,-3.2708,-3.2707,-3.2705,-3.2705,0,0,-3.1884,-3.2011,-3.204,-3.2092,-3.2194,-3.2274,-3.2385,-3.2492,-3.255,-3.2633,-3.2728,-3.2872,-3.2852,-3.2915,-3.2935,-3.3011,-3.3142,-3.2979,-3.2982,-3.3008,-3.3321,-3.3339,-3.3364,-3.3139,-3.3143,-3.3147,-3.3314,0,-3.2037,-3.2231,-3.226,-3.2433,-3.2529,-3.253,-3.2627,-3.2701,-3.2742,-3.2831,-3.2877,-3.2979,-3.2944,-3.2983,-3.3057,-3.311,-3.3205,-3.3098,-3.3231,-3.3235,-3.3208,-3.3394,-3.3412,-3.3566,-3.3336,-3.334,-3.3343,0,-3.2242,-3.2329,-3.251,-3.26,-3.2642,-3.2728,-3.2829,-3.2914,-3.2999,-3.3024,-3.3095,-3.3106,-3.3223,-3.3163,-3.3327,-3.3253,-3.331,-3.3344,-3.3351,-3.3365,-3.3297,-3.3415,-3.3616,-3.364,-3.3377,-3.3375,-3.3372,0,-3.2347,-3.2509,-3.2639,-3.2683,-3.2791,-3.2852,-3.29,-3.2981,-3.3044,-3.3134,-3.3176,-3.3278,-3.3335,-3.3415,-3.3455,-3.3407,-3.3617,-3.3559,-3.3643,-3.3642,-3.3688,-3.3684,-3.3902,-3.3721,-3.3721,-3.372,-3.372,0,-3.2516,-3.2628,-3.2687,-3.2768,-3.2893,-3.2926,-3.3051,-3.3097,-3.317,-3.3261,-3.3268,-3.3354,-3.34,-3.3494,-3.3526,-3.3658,-3.3683,-3.3708,-3.3715,-3.3708,-3.3705,-3.3746,-3.3737,-3.3727,-3.3725,-3.3724,-3.3723,0,-3.2655,-3.2699,-3.2841,-3.2931,-3.2956,-3.3045,-3.3123,-3.3203,-3.3243,-3.3358,-3.3387,-3.3452,-3.3562,-3.3609,-3.3745,-3.3767,-3.3919,-3.3917,-3.3889,-3.3892,-3.3973,-3.3966,-3.4226,-3.4263,-3.4056,-3.4058,-3.406,0,-3.276,-3.2846,-3.2945,-3.3005,-3.3055,-3.3153,-3.3217,-3.3253,-3.3321,-3.3425,-3.3492,-3.3602,-3.3692,-3.3869,-3.3929,-3.4034,-3.4036,-3.412,-3.4052,-3.4043,-3.404,-3.4035,-3.4045,-3.4133,-3.4135,-3.4137,-3.4138,0,-3.2944,-3.2962,-3.3053,-3.3153,-3.3228,-3.3309,-3.3388,-3.3438,-3.3487,-3.3563,-3.3675,-3.3744,-3.3883,-3.3993,-3.4102,-3.4154,-3.4156,-3.4159,-3.4184,-3.4179,-3.416,-3.4173,-3.3925,-3.4153,-3.4152,-3.4151,-3.415,-3.4149,-3.3071,-3.3147,-3.3229,-3.3331,-3.3394,-3.3468,-3.3547,-3.3597,-3.369,-3.3805,-3.3821,-3.3942,-3.4027,-3.4172,-3.4229,-3.4325,-3.4305,-3.434,-3.435,-3.4359,-3.4365,-3.4143,-3.4345,-3.4345,-3.4344,-3.4344,-3.4344,0,-3.3256,-3.3309,-3.3402,-3.3511,-3.3592,-3.3584,-3.3672,-3.3741,-3.3846,-3.3924,-3.4012,-3.4142,-3.425,-3.4318,-3.4427,-3.4491,-3.4495,-3.4519,-3.4516,-3.4528,-3.4376,-3.4344,-3.4514,-3.4514,-3.4514,-3.4514,-3.4514,-3.4514,-3.3362,-3.3492,-3.3519,-3.3682,-3.3734,-3.3851,-3.3902,-3.3971,-3.4033,-3.4177,-3.4266,-3.4309,-3.4385,-3.4499,-3.4598,-3.4616,-3.4657,-3.4682,-3.4699,-3.4556,-3.4538,-3.4522,-3.4492,-3.469,-3.469,-3.4843,-3.4844,-3.4845]}]]